QPF
0.00 0.00 0.00 0.00 0.00 0.00 0.00 0.00 0.00 0.00 0.00 0.00 0.00 0.00 0.00 0.00 0.00 0.00 0.00 0.00 0.00 0.00 0.00 0.00 0.00 0.00 0.00 0.00 0.00 0.00 0.00 0.00 0.00 0.00 0.00 0.00 0.00 0.00 0.00 0.00 0.00 0.00 0.00 0.00
0.00 0.00 0.00 0.00 0.00 0.00 0.00 0.00 0.00 0.00 0.00 0.00 0.00 0.00 0.00 0.00 0.00 0.00 0.00 0.00 0.00 0.00 0.00 0.00 0.00 0.00 0.00 0.00 0.00 0.00 0.00 0.00 0.00 0.00 0.00 0.00 0.00 0.00 0.00 0.00 0.00 0.00 0.00 0.00
0.00 0.00 0.00 0.00 0.00 0.00 0.00 0.00 0.00 0.00 0.00 0.00 0.00 0.00 0.00 0.00 0.00 0.00 0.00 0.00 0.00 0.00 0.00 0.00 0.00 0.00 0.00 0.00 0.00 0.00 0.00 0.00 0.00 0.00 0.00 0.00 0.00 0.00 0.00 0.00 0.00 0.00 0.00 0.00
0.00 0.00 0.00 0.00 0.00 0.00 0.00 0.00 0.00 0.00 0.00 0.00 0.00 0.00 0.00 0.00 0.00 0.00 0.00 0.00 0.00 0.00 0.00 0.00 0.00 0.00 0.00 0.00 0.00 0.00 0.00 0.00 0.00 0.00 0.00 0.00 0.00 0.00 0.00 0.00 0.00 0.00 0.00 0.00
0.00 0.00 0.00 0.00 0.00 0.00 0.00 0.00 0.00 0.00 0.00 0.00 0.00 0.00 0.00 0.00 0.00 0.00 0.00 0.00 0.00 0.00 0.00 0.00 0.00 0.00 0.00 0.00 0.00 0.00 0.00 0.00 0.00 0.00 0.00 0.00 0.00 0.00 0.00 0.00 0.00 0.00 0.00 0.00
0.00 0.00 0.00 0.00 0.00 0.00 0.00 0.00 0.00 0.00 0.00 0.00 0.00 0.00 0.00 0.00 0.00 0.00 0.00 0.00 0.00 0.00 0.00 0.00 0.00 0.00 0.00 0.00 0.00 0.00 0.00 0.00 0.00 0.00 0.00 0.00 0.00 0.00 0.00 0.00 0.00 0.00 0.00 0.00
0.00 0.00 0.00 0.00 0.00 0.00 0.00 0.00 0.00 0.00 0.00 0.00 0.00 0.00 0.00 0.00 0.00 0.00 0.00 0.00 0.00 0.00 0.00 0.00 0.00 0.00 0.00 0.00 0.00 0.00 0.00 0.00 0.00 0.00 0.00 0.00 0.00 0.00 0.00 0.00 0.00 0.00 0.00 0.00
0.00 0.00 0.00 0.00 0.00 0.00 0.00 0.00 0.00 0.00 0.00 0.00 0.00 0.00 0.00 0.00 0.00 0.00 0.00 0.00 0.00 0.00 0.00 0.00 0.00 0.00 0.00 0.00 0.00 0.00 0.00 0.00 0.00 0.00 0.00 0.00 0.00 0.00 0.00 0.00 0.00 0.00 0.00 0.00
0.00 0.00 0.00 0.00 0.00 0.00 0.00 0.00 0.00 0.00 0.00 0.00 0.00 0.00 0.00 0.00 0.00 0.00 0.00 0.00 0.00 0.00 0.00 0.00 0.00 0.00 0.00 0.00 0.00 0.00 0.00 0.00 0.00 0.00 0.00 0.00 0.00 0.00 0.00 0.00 0.00 0.00 0.00 0.00
0.00 0.00 0.00 0.00 0.00 0.00 0.00 0.00 0.00 0.00 0.00 0.00 0.00 0.00 0.00 0.00 0.00 0.00 0.00 0.00 0.00 0.00 0.00 0.00 0.00 0.00 0.00 0.00 0.00 0.00 0.00 0.00 0.00 0.00 0.00 0.00 0.00 0.00 0.00 0.00 0.00 0.00 0.00 0.00
0.00 0.00 0.00 0.00 0.00 0.00 0.00 0.00 0.00 0.00 0.00 0.00 0.00 0.00 0.00 0.00 0.00 0.00 0.00 0.00 0.00 0.00 0.00 0.00 0.00 0.00 0.00 0.00 0.00 0.00 0.00 0.00 0.00 0.00 0.00 0.00 0.00 0.00 0.00 0.00 0.00 0.00 0.00 0.00
0.00 0.00 0.00 0.00 0.00 0.00 0.00 0.00 0.00 0.00 0.00 0.00 0.00 0.00 0.00 0.00 0.00 0.00 0.00 0.00 0.00 0.00 0.00 0.00 0.00 0.00 0.00 0.00 0.00 0.00 0.00 0.00 0.00 0.00 0.00 0.00 0.00 0.00 0.00 0.00 0.00 0.00 0.00 0.00
0.00 0.00 0.00 0.00 0.00 0.00 0.00 0.00 0.00 0.00 0.00 0.00 0.00 0.00 0.00 0.00 0.00 0.00 0.00 0.00 0.00 0.00 0.00 0.00 0.00 0.00 0.00 0.00 0.00 0.00 0.00 0.00 0.00 0.00 0.00 0.00 0.00 0.00 0.00 0.00 0.00 0.00 0.00 0.00
0.00 0.00 0.00 0.00 0.00 0.00 0.00 0.00 0.00 0.00 0.00 0.00 0.00 0.00 0.00 0.00 0.00 0.00 0.00 0.00 0.00 0.00 0.00 0.00 0.00 0.00 0.00 0.00 0.00 0.00 0.00 0.00 0.00 0.00 0.00 0.00 0.00 0.00 0.00 0.00 0.00 0.00 0.00 0.00
0.00 0.00 0.00 0.00 0.00 0.00 0.00 0.00 0.00 0.00 0.00 0.00 0.00 0.00 0.00 0.00 0.00 0.00 0.00 0.00 0.00 0.00 0.00 0.00 0.00 0.00 0.00 0.00 0.00 0.00 0.00 0.00 0.00 0.00 0.00 0.00 0.00 0.00 0.00 0.00 0.00 0.00 0.00 0.00
0.00 0.00 0.00 0.00 0.00 0.00 0.00 0.00 0.00 0.00 0.00 0.00 0.00 0.00 0.00 0.00 0.00 0.00 0.00 0.00 0.00 0.00 0.00 0.00 0.00 0.00 0.00 0.00 0.00 0.00 0.00 0.00 0.00 0.00 0.00 0.00 0.00 0.00 0.00 0.00 0.00 0.00 0.00 0.00
0.00 0.00 0.00 0.00 0.00 0.00 0.00 0.00 0.00 0.00 0.00 0.00 0.00 0.00 0.00 0.00 0.00 0.00 0.00 0.00 0.00 0.00 0.00 0.00 0.00 0.00 0.00 0.00 0.00 0.00 0.00 0.00 0.00 0.00 0.00 0.00 0.00 0.00 0.00 0.00 0.00 0.00 0.00 0.00
0.00 0.00 0.00 0.00 0.00 0.00 0.00 0.00 0.00 0.00 0.00 0.00 0.00 0.00 0.00 0.00 0.00 0.00 0.00 0.00 0.00 0.00 0.00 0.00 0.00 0.00 0.00 0.00 0.00 0.00 0.00 0.00 0.00 0.00 0.00 0.00 0.00 0.00 0.00 0.00 0.00 0.00 0.00 0.00
0.01 0.01 0.00 0.00 0.00 0.00 0.00 0.00 0.00 0.00 0.00 0.00 0.00 0.00 0.00 0.00 0.00 0.00 0.00 0.00 0.00 0.00 0.00 0.00 0.00 0.00 0.00 0.00 0.00 0.00 0.00 0.00 0.00 0.00 0.00 0.00 0.00 0.00 0.00 0.00 0.00 0.00 0.00 0.00
0.01 0.01 0.01 0.00 0.00 0.00 0.00 0.00 0.00 0.00 0.00 0.00 0.00 0.00 0.00 0.00 0.00 0.00 0.00 0.00 0.00 0.00 0.00 0.00 0.00 0.00 0.00 0.00 0.00 0.00 0.00 0.00 0.00 0.00 0.00 0.00 0.00 0.00 0.00 0.00 0.00 0.00 0.00 0.00
0.01 0.01 0.01 0.01 0.00 0.00 0.00 0.00 0.00 0.00 0.00 0.00 0.00 0.00 0.00 0.00 0.00 0.00 0.00 0.00 0.01 0.01 0.00 0.00 0.00 0.00 0.00 0.00 0.00 0.00 0.00 0.00 0.00 0.00 0.00 0.00 0.00 0.00 0.00 0.00 0.00 0.00 0.00 0.00
0.01 0.01 0.01 0.00 0.00 0.00 0.00 0.00 0.00 0.00 0.00 0.00 0.00 0.00 0.00 0.00 0.00 0.00 0.00 0.00 0.00 0.01 0.01 0.01 0.00 0.00 0.00 0.00 0.00 0.00 0.00 0.00 0.00 0.00 0.00 0.00 0.00 0.00 0.00 0.00 0.00 0.00 0.00 0.00
0.01 0.00 0.00 0.00 0.00 0.00 0.00 0.00 0.00 0.00 0.00 0.00 0.00 0.00 0.00 0.00 0.00 0.00 0.01 0.01 0.01 0.01 0.01 0.00 0.00 0.00 0.00 0.00 0.00 0.00 0.00 0.00 0.00 0.00 0.00 0.00 0.00 0.00 0.00 0.00 0.00 0.00 0.00 0.00
0.01 0.01 0.01 0.01 0.01 0.00 0.00 0.00 0.00 0.00 0.00 0.00 0.00 0.00 0.00 0.00 0.00 0.00 0.00 0.00 0.00 0.01 0.00 0.00 0.00 0.00 0.00 0.00 0.00 0.00 0.00 0.00 0.00 0.00 0.00 0.00 0.00 0.00 0.00 0.00 0.00 0.00 0.00 0.00
0.01 0.01 0.01 0.01 0.01 0.01 0.01 0.01 0.01 0.01 0.01 0.01 0.01 0.00 0.00 0.01 0.01 0.01 0.02 0.01 0.01 0.01 0.01 0.01 0.01 0.01 0.01 0.00 0.00 0.00 0.00 0.00 0.00 0.00 0.00 0.00 0.00 0.00 0.00 0.00 0.00 0.00 0.00 0.00
0.01 0.01 0.01 0.01 0.01 0.01 0.01 0.01 0.01 0.01 0.01 0.01 0.02 0.02 0.02 0.01 0.01 0.01 0.02 0.03 0.03 0.03 0.02 0.02 0.02 0.01 0.01 0.01 0.00 0.00 0.00 0.00 0.00 0.00 0.00 0.00 0.00 0.00 0.00 0.00 0.00 0.00 0.00 0.00
0.01 0.01 0.01 0.01 0.01 0.01 0.02 0.02 0.01 0.01 0.01 0.01 0.01 0.02 0.02 0.03 0.03 0.02 0.02 0.03 0.04 0.04 0.03 0.02 0.02 0.02 0.01 0.01 0.01 0.01 0.00 0.00 0.00 0.00 0.00 0.00 0.00 0.00 0.00 0.00 0.00 0.00 0.00 0.00
MSLP
1011.94 1012.04 1012.13 1012.18 1012.17 1012.05 1011.80 1011.42 1010.90 1010.26 1009.55 1008.83 1008.16 1007.59 1007.18 1006.95 1006.90 1007.02 1007.25 1007.57 1007.92 1008.27 1008.59 1008.87 1009.12 1009.37 1009.63 1009.91 1010.24 1010.61 1011.00 1011.40 1011.78 1012.12 1012.39 1012.60 1012.74 1012.83 1012.88 1012.92 1012.95 1013.00 1013.06 1013.13
1011.89 1011.89 1011.85 1011.75 1011.58 1011.31 1010.94 1010.47 1009.90 1009.26 1008.59 1007.94 1007.35 1006.87 1006.53 1006.34 1006.30 1006.40 1006.61 1006.88 1007.19 1007.50 1007.80 1008.10 1008.38 1008.68 1009.00 1009.35 1009.75 1010.16 1010.60 1011.02 1011.42 1011.76 1012.03 1012.23 1012.38 1012.47 1012.53 1012.57 1012.62 1012.67 1012.74 1012.81
1011.79 1011.70 1011.54 1011.31 1011.00 1010.61 1010.14 1009.60 1009.00 1008.37 1007.74 1007.14 1006.62 1006.20 1005.90 1005.73 1005.69 1005.76 1005.92 1006.15 1006.41 1006.70 1007.00 1007.32 1007.65 1008.01 1008.40 1008.82 1009.27 1009.74 1010.21 1010.65 1011.04 1011.37 1011.63 1011.83 1011.96 1012.05 1012.11 1012.15 1012.21 1012.26 1012.33 1012.40
1011.60 1011.43 1011.17 1010.85 1010.44 1009.96 1009.43 1008.84 1008.23 1007.62 1007.02 1006.47 1006.00 1005.63 1005.35 1005.19 1005.13 1005.16 1005.27 1005.45 1005.67 1005.94 1006.24 1006.58 1006.96 1007.38 1007.84 1008.33 1008.84 1009.35 1009.84 1010.28 1010.67 1010.98 1011.22 1011.39 1011.51 1011.59 1011.65 1011.70 1011.76 1011.82 1011.88 1011.94
1011.30 1011.06 1010.74 1010.35 1009.89 1009.37 1008.80 1008.21 1007.61 1007.03 1006.47 1005.97 1005.54 1005.19 1004.92 1004.75 1004.65 1004.64 1004.70 1004.82 1005.01 1005.26 1005.56 1005.93 1006.36 1006.83 1007.35 1007.90 1008.45 1008.99 1009.49 1009.93 1010.31 1010.60 1010.82 1010.98 1011.09 1011.16 1011.22 1011.28 1011.34 1011.40 1011.46 1011.50
1010.90 1010.59 1010.23 1009.81 1009.33 1008.81 1008.26 1007.69 1007.13 1006.59 1006.09 1005.63 1005.23 1004.90 1004.63 1004.42 1004.29 1004.22 1004.22 1004.30 1004.45 1004.68 1004.99 1005.38 1005.84 1006.37 1006.94 1007.53 1008.12 1008.68 1009.18 1009.62 1009.98 1010.27 1010.47 1010.62 1010.73 1010.81 1010.88 1010.95 1011.02 1011.09 1011.14 1011.18
1010.39 1010.05 1009.66 1009.24 1008.78 1008.29 1007.79 1007.28 1006.79 1006.31 1005.86 1005.44 1005.06 1004.73 1004.44 1004.20 1004.02 1003.90 1003.85 1003.87 1003.99 1004.20 1004.51 1004.92 1005.41 1005.97 1006.58 1007.20 1007.82 1008.40 1008.92 1009.36 1009.72 1010.00 1010.21 1010.37 1010.49 1010.59 1010.68 1010.78 1010.87 1010.95 1011.01 1011.04
1009.84 1009.46 1009.07 1008.67 1008.26 1007.84 1007.41 1006.98 1006.56 1006.15 1005.75 1005.37 1005.00 1004.66 1004.35 1004.07 1003.83 1003.65 1003.54 1003.51 1003.59 1003.78 1004.09 1004.50 1005.01 1005.60 1006.24 1006.90 1007.54 1008.14 1008.67 1009.13 1009.50 1009.80 1010.03 1010.22 1010.38 1010.52 1010.65 1010.78 1010.90 1011.01 1011.08 1011.11
1009.28 1008.89 1008.52 1008.16 1007.82 1007.48 1007.14 1006.80 1006.45 1006.10 1005.74 1005.38 1005.02 1004.66 1004.30 1003.97 1003.67 1003.42 1003.25 1003.17 1003.21 1003.37 1003.67 1004.09 1004.61 1005.22 1005.89 1006.57 1007.24 1007.87 1008.43 1008.92 1009.32 1009.66 1009.93 1010.17 1010.38 1010.57 1010.76 1010.94 1011.10 1011.24 1011.33 1011.37
1008.80 1008.41 1008.08 1007.78 1007.51 1007.25 1006.99 1006.73 1006.44 1006.14 1005.81 1005.45 1005.07 1004.67 1004.26 1003.86 1003.49 1003.17 1002.93 1002.80 1002.79 1002.93 1003.21 1003.62 1004.16 1004.78 1005.47 1006.19 1006.89 1007.55 1008.15 1008.68 1009.14 1009.53 1009.86 1010.16 1010.43 1010.69 1010.94 1011.18 1011.39 1011.57 1011.70 1011.76
1008.46 1008.10 1007.81 1007.57 1007.37 1007.18 1006.99 1006.78 1006.53 1006.25 1005.92 1005.54 1005.12 1004.66 1004.18 1003.71 1003.26 1002.86 1002.55 1002.36 1002.30 1002.40 1002.66 1003.07 1003.61 1004.25 1004.96 1005.71 1006.45 1007.15 1007.81 1008.39 1008.91 1009.36 1009.76 1010.13 1010.47 1010.80 1011.12 1011.42 1011.68 1011.91 1012.07 1012.16
1008.32 1008.01 1007.77 1007.58 1007.43 1007.28 1007.13 1006.93 1006.70 1006.40 1006.04 1005.62 1005.13 1004.60 1004.04 1003.48 1002.95 1002.47 1002.09 1001.83 1001.73 1001.79 1002.02 1002.42 1002.95 1003.61 1004.34 1005.12 1005.90 1006.65 1007.36 1008.01 1008.59 1009.11 1009.58 1010.02 1010.43 1010.82 1011.19 1011.54 1011.86 1012.13 1012.33 1012.45
1008.42 1008.15 1007.95 1007.80 1007.66 1007.53 1007.36 1007.16 1006.89 1006.55 1006.13 1005.64 1005.09 1004.48 1003.83 1003.19 1002.57 1002.02 1001.56 1001.25 1001.09 1001.11 1001.31 1001.69 1002.23 1002.89 1003.64 1004.44 1005.27 1006.07 1006.83 1007.53 1008.17 1008.76 1009.29 1009.78 1010.24 1010.68 1011.10 1011.49 1011.85 1012.15 1012.39 1012.55
1008.74 1008.51 1008.33 1008.18 1008.03 1007.86 1007.66 1007.40 1007.07 1006.66 1006.17 1005.61 1004.97 1004.28 1003.56 1002.84 1002.15 1001.53 1001.02 1000.64 1000.44 1000.42 1000.59 1000.95 1001.48 1002.14 1002.90 1003.73 1004.58 1005.42 1006.23 1006.98 1007.67 1008.30 1008.88 1009.41 1009.91 1010.38 1010.83 1011.24 1011.63 1011.96 1012.23 1012.42
1009.25 1009.04 1008.85 1008.67 1008.47 1008.23 1007.95 1007.61 1007.19 1006.71 1006.14 1005.50 1004.80 1004.04 1003.27 1002.49 1001.74 1001.07 1000.51 1000.09 999.85 999.79 999.93 1000.27 1000.78 1001.43 1002.20 1003.04 1003.92 1004.79 1005.62 1006.41 1007.13 1007.79 1008.39 1008.95 1009.46 1009.94 1010.39 1010.82 1011.21 1011.56 1011.86 1012.08
1009.88 1009.66 1009.44 1009.19 1008.90 1008.57 1008.19 1007.74 1007.24 1006.67 1006.04 1005.34 1004.59 1003.79 1002.98 1002.17 1001.40 1000.70 1000.11 999.66 999.38 999.30 999.41 999.72 1000.21 1000.85 1001.61 1002.45 1003.33 1004.22 1005.07 1005.87 1006.61 1007.28 1007.89 1008.44 1008.94 1009.42 1009.86 1010.28 1010.67 1011.03 1011.34 1011.59
1010.55 1010.29 1009.99 1009.65 1009.26 1008.82 1008.33 1007.79 1007.20 1006.56 1005.87 1005.14 1004.37 1003.57 1002.75 1001.94 1001.17 1000.46 999.86 999.40 999.10 998.99 999.08 999.36 999.83 1000.45 1001.20 1002.03 1002.90 1003.78 1004.63 1005.43 1006.16 1006.83 1007.42 1007.95 1008.43 1008.88 1009.31 1009.71 1010.09 1010.44 1010.76 1011.03
1011.15 1010.84 1010.45 1010.00 1009.49 1008.94 1008.35 1007.72 1007.07 1006.39 1005.68 1004.94 1004.18 1003.40 1002.61 1001.83 1001.08 1000.40 999.80 999.34 999.04 998.92 998.98 999.24 999.68 1000.28 1001.00 1001.81 1002.66 1003.51 1004.35 1005.12 1005.83 1006.47 1007.04 1007.54 1007.99 1008.40 1008.79 1009.17 1009.53 1009.87 1010.19 1010.47
1011.61 1011.21 1010.73 1010.18 1009.57 1008.92 1008.25 1007.56 1006.87 1006.18 1005.47 1004.76 1004.04 1003.31 1002.57 1001.84 1001.14 1000.49 999.93 999.48 999.19 999.06 999.11 999.35 999.76 1000.33 1001.01 1001.79 1002.61 1003.43 1004.23 1004.97 1005.64 1006.24 1006.76 1007.22 1007.63 1008.01 1008.36 1008.71 1009.05 1009.38 1009.69 1009.99
1011.83 1011.36 1010.79 1010.16 1009.47 1008.76 1008.04 1007.32 1006.62 1005.94 1005.27 1004.60 1003.94 1003.27 1002.60 1001.94 1001.30 1000.70 1000.18 999.77 999.49 999.36 999.41 999.63 1000.02 1000.55 1001.20 1001.94 1002.71 1003.49 1004.24 1004.94 1005.56 1006.11 1006.59 1007.00 1007.37 1007.71 1008.03 1008.35 1008.66 1008.98 1009.29 1009.59
1011.77 1011.24 1010.62 1009.93 1009.20 1008.46 1007.72 1007.01 1006.32 1005.68 1005.05 1004.45 1003.85 1003.26 1002.66 1002.07 1001.50 1000.96 1000.49 1000.11 999.86 999.75 999.80 1000.01 1000.38 1000.89 1001.50 1002.19 1002.92 1003.65 1004.35 1004.99 1005.56 1006.06 1006.48 1006.85 1007.18 1007.48 1007.77 1008.06 1008.36 1008.67 1008.97 1009.27
1011.42 1010.86 1010.21 1009.51 1008.77 1008.03 1007.31 1006.62 1005.98 1005.38 1004.81 1004.27 1003.74 1003.22 1002.70 1002.17 1001.66 1001.19 1000.77 1000.44 1000.22 1000.13 1000.19 1000.41 1000.77 1001.25 1001.83 1002.48 1003.16 1003.83 1004.47 1005.06 1005.57 1006.02 1006.40 1006.72 1007.01 1007.29 1007.55 1007.83 1008.12 1008.42 1008.72 1009.01
1010.80 1010.23 1009.60 1008.91 1008.19 1007.48 1006.80 1006.16 1005.57 1005.02 1004.51 1004.03 1003.57 1003.10 1002.64 1002.18 1001.73 1001.31 1000.95 1000.66 1000.49 1000.43 1000.52 1000.74 1001.10 1001.56 1002.12 1002.73 1003.36 1003.99 1004.57 1005.10 1005.56 1005.96 1006.30 1006.59 1006.85 1007.11 1007.36 1007.63 1007.91 1008.20 1008.50 1008.79
1009.94 1009.41 1008.80 1008.15 1007.48 1006.83 1006.20 1005.62 1005.08 1004.59 1004.13 1003.70 1003.28 1002.87 1002.46 1002.05 1001.65 1001.29 1000.98 1000.75 1000.62 1000.61 1000.72 1000.96 1001.32 1001.78 1002.32 1002.90 1003.49 1004.07 1004.61 1005.09 1005.51 1005.87 1006.17 1006.44 1006.69 1006.93 1007.18 1007.44 1007.72 1008.02 1008.31 1008.59
1008.94 1008.44 1007.88 1007.29 1006.68 1006.09 1005.53 1005.00 1004.52 1004.08 1003.66 1003.28 1002.90 1002.52 1002.15 1001.78 1001.44 1001.13 1000.87 1000.69 1000.61 1000.64 1000.79 1001.06 1001.43 1001.89 1002.41 1002.97 1003.53 1004.07 1004.57 1005.02 1005.40 1005.74 1006.02 1006.28 1006.52 1006.76 1007.01 1007.28 1007.56 1007.85 1008.14 1008.41
1007.86 1007.40 1006.90 1006.37 1005.83 1005.30 1004.80 1004.33 1003.90 1003.50 1003.12 1002.77 1002.42 1002.08 1001.74 1001.41 1001.11 1000.85 1000.64 1000.52 1000.49 1000.56 1000.75 1001.05 1001.43 1001.90 1002.41 1002.95 1003.49 1004.00 1004.47 1004.90 1005.26 1005.58 1005.87 1006.12 1006.37 1006.62 1006.88 1007.15 1007.44 1007.73 1008.00 1008.25
1006.78 1006.36 1005.91 1005.43 1004.95 1004.49 1004.05 1003.64 1003.25 1002.90 1002.56 1002.23 1001.91 1001.60 1001.29 1001.00 1000.74 1000.52 1000.36 1000.28 1000.30 1000.42 1000.64 1000.96 1001.36 1001.83 1002.34 1002.87 1003.39 1003.89 1004.35 1004.76 1005.12 1005.44 1005.73 1006.00 1006.26 1006.52 1006.79 1007.08 1007.36 1007.64 1007.89 1008.11
Thickness
5723 5723 5719 5717 5717 5713 5710 5717 5715 5723 5728 5739 5747 5750 5752 5753 5752 5750 5749 5748 5747 5744 5743 5739 5736 5732 5729 5725 5721 5716 5711 5706 5703 5700 5695 5691 5687 5684 5681 5678 5676 5674 5672 5669
5716 5719 5715 5712 5718 5718 5715 5717 5719 5722 5728 5748 5753 5754 5751 5752 5751 5749 5749 5749 5749 5747 5744 5741 5738 5734 5730 5725 5721 5717 5712 5707 5703 5699 5694 5690 5687 5684 5681 5678 5676 5674 5671 5669
5708 5715 5709 5708 5724 5723 5721 5724 5722 5721 5735 5749 5747 5747 5750 5753 5753 5752 5753 5752 5750 5749 5746 5743 5741 5737 5730 5726 5722 5717 5712 5707 5702 5698 5694 5690 5687 5684 5680 5678 5676 5673 5671 5669
5704 5704 5689 5722 5736 5728 5723 5726 5732 5732 5739 5744 5745 5750 5754 5757 5756 5755 5755 5753 5752 5750 5747 5745 5742 5737 5732 5726 5721 5716 5711 5706 5701 5697 5693 5689 5685 5682 5679 5678 5675 5672 5670 5668
5698 5693 5701 5720 5729 5724 5717 5722 5735 5734 5737 5742 5745 5744 5752 5759 5759 5759 5758 5756 5754 5752 5748 5745 5740 5735 5730 5724 5719 5714 5709 5705 5701 5696 5692 5688 5684 5681 5679 5676 5673 5671 5668 5666
5692 5684 5687 5713 5726 5727 5719 5714 5731 5732 5731 5735 5734 5733 5749 5759 5757 5757 5756 5754 5752 5749 5746 5741 5737 5732 5727 5722 5717 5711 5707 5703 5700 5695 5690 5686 5683 5680 5677 5674 5670 5668 5665 5663
5688 5687 5700 5719 5719 5716 5701 5709 5724 5727 5728 5730 5730 5738 5747 5751 5751 5751 5750 5748 5746 5743 5739 5737 5733 5728 5723 5719 5714 5710 5705 5700 5695 5691 5687 5684 5680 5677 5674 5671 5668 5666 5663 5661
5687 5681 5690 5711 5708 5703 5707 5718 5720 5721 5724 5726 5730 5735 5739 5741 5743 5743 5742 5740 5739 5736 5733 5730 5727 5723 5719 5714 5711 5705 5699 5694 5690 5687 5684 5680 5676 5673 5671 5668 5665 5663 5661 5658
5688 5693 5699 5701 5700 5703 5705 5707 5711 5713 5717 5720 5723 5727 5731 5734 5736 5736 5736 5734 5732 5730 5726 5723 5721 5719 5714 5709 5703 5698 5693 5689 5686 5682 5678 5675 5672 5669 5666 5663 5662 5660 5657 5653
5678 5690 5693 5693 5694 5694 5695 5697 5702 5706 5710 5713 5715 5721 5725 5727 5729 5729 5729 5728 5726 5723 5720 5717 5715 5712 5710 5703 5698 5694 5689 5684 5681 5678 5674 5670 5666 5664 5661 5658 5656 5653 5650 5647
5667 5677 5681 5685 5683 5684 5685 5689 5693 5699 5702 5705 5708 5713 5717 5720 5723 5723 5722 5721 5720 5719 5716 5713 5708 5704 5701 5697 5693 5689 5684 5679 5676 5671 5668 5663 5659 5654 5651 5647 5645 5643 5642 5640
5654 5662 5660 5666 5672 5672 5672 5676 5681 5686 5692 5698 5700 5705 5710 5713 5717 5717 5717 5716 5714 5713 5710 5708 5703 5698 5694 5690 5687 5684 5679 5675 5670 5665 5660 5657 5652 5645 5637 5636 5632 5629 5627 5627
5640 5643 5645 5651 5654 5656 5658 5663 5668 5673 5679 5685 5692 5696 5700 5705 5708 5709 5710 5709 5709 5707 5704 5701 5697 5692 5688 5684 5681 5678 5673 5669 5663 5659 5655 5651 5647 5643 5637 5628 5623 5621 5618 5616
5622 5623 5627 5632 5635 5639 5644 5649 5656 5662 5668 5674 5680 5685 5689 5694 5698 5700 5702 5704 5703 5700 5697 5694 5690 5686 5682 5677 5673 5670 5666 5660 5656 5651 5648 5645 5641 5638 5634 5630 5626 5620 5612 5607
5604 5605 5608 5613 5618 5623 5628 5634 5641 5648 5655 5661 5667 5672 5677 5682 5687 5691 5694 5694 5693 5691 5689 5686 5683 5679 5674 5670 5665 5661 5657 5652 5648 5644 5640 5637 5633 5629 5626 5622 5619 5614 5609 5603
5587 5590 5593 5596 5600 5606 5611 5617 5623 5632 5639 5646 5652 5659 5665 5671 5676 5681 5684 5685 5684 5684 5683 5679 5676 5671 5666 5662 5657 5653 5647 5642 5638 5635 5631 5628 5624 5621 5617 5614 5610 5606 5602 5598
5569 5572 5575 5579 5584 5589 5594 5600 5607 5615 5623 5631 5638 5645 5652 5658 5664 5669 5672 5674 5676 5676 5674 5671 5668 5662 5657 5653 5649 5644 5639 5632 5627 5626 5623 5620 5616 5613 5609 5605 5601 5597 5593 5586
5552 5554 5558 5562 5567 5573 5580 5586 5593 5600 5608 5616 5624 5632 5638 5644 5651 5656 5659 5661 5661 5662 5662 5661 5657 5652 5647 5644 5640 5636 5631 5626 5621 5618 5614 5610 5607 5603 5600 5595 5592 5587 5582 5577
5537 5540 5543 5547 5552 5558 5565 5572 5578 5586 5593 5602 5610 5618 5626 5632 5638 5642 5645 5646 5648 5649 5650 5648 5644 5640 5637 5633 5629 5625 5621 5617 5612 5608 5604 5597 5595 5593 5589 5585 5582 5578 5573 5569
5524 5527 5530 5534 5539 5544 5550 5557 5565 5572 5579 5586 5595 5604 5612 5619 5623 5627 5629 5632 5636 5638 5636 5633 5629 5627 5624 5620 5616 5614 5610 5606 5602 5598 5593 5589 5586 5583 5579 5575 5571 5567 5563 5559
5511 5514 5517 5521 5526 5531 5537 5543 5551 5558 5566 5573 5580 5589 5597 5604 5608 5611 5613 5616 5618 5619 5619 5616 5615 5614 5611 5607 5602 5602 5598 5594 5591 5587 5583 5579 5576 5572 5569 5565 5560 5557 5553 5549
5499 5502 5505 5509 5514 5520 5526 5531 5537 5545 5552 5559 5566 5573 5581 5587 5592 5595 5598 5600 5602 5601 5602 5602 5602 5600 5597 5593 5590 5588 5585 5582 5579 5575 5572 5568 5565 5561 5558 5554 5550 5546 5542 5538
5489 5492 5495 5499 5503 5509 5515 5520 5525 5531 5538 5545 5551 5558 5564 5570 5575 5579 5582 5584 5585 5585 5587 5588 5587 5583 5580 5578 5577 5574 5572 5569 5566 5563 5560 5557 5553 5550 5546 5542 5539 5534 5530 5527
5480 5482 5485 5488 5492 5497 5503 5508 5513 5519 5524 5531 5537 5543 5548 5554 5559 5563 5566 5568 5569 5569 5571 5570 5568 5567 5565 5565 5563 5561 5559 5556 5553 5551 5547 5544 5541 5537 5534 5530 5527 5523 5519 5515
5469 5472 5475 5478 5482 5486 5491 5496 5501 5506 5511 5518 5524 5529 5534 5538 5543 5548 5550 5552 5554 5553 5554 5553 5553 5552 5551 5551 5550 5548 5546 5543 5540 5537 5534 5531 5527 5524 5522 5518 5514 5511 5507 5504
5461 5463 5465 5468 5472 5474 5479 5484 5489 5494 5499 5505 5510 5515 5519 5523 5527 5531 5534 5537 5538 5538 5540 5540 5539 5537 5538 5537 5536 5534 5532 5529 5525 5523 5521 5518 5515 5512 5509 5506 5502 5499 5495 5492
5454 5456 5458 5461 5465 5467 5470 5474 5479 5484 5488 5493 5497 5501 5505 5509 5512 5516 5520 5522 5524 5524 5525 5526 5526 5525 5524 5522 5521 5520 5518 5516 5514 5511 5508 5505 5502 5499 5496 5493 5490 5487 5483 5480